Tracking 35274 objects as of 12-Sep-2026
HD Live streaming from Space Station
objects crossing your sky now

FREGAT DEB


10-day predictions


NORAD ID: 46011
Int'l Code: 2011-037HN
Launch date: July 18, 2011
Source: Commonwealth of Independent States (former USSR) (CIS)
Launch site: TYURATAM MISSILE AND SPACE COMPLEX (TTMTR)

Note: This is SATELLITE DEBRIS
Your satellite tracking list
Your tracking list is empty




NASA's NSSDC Master Catalog

Two Line Element Set (TLE):
1 46011U 11037HN  22038.74281899  .00131228  00000-0  64567-2 0  9994
2 46011  51.4430 180.5395 1824096 207.5688 141.5596 11.72597275 65905
Source of the keplerian elements: AFSPC